• In Hungary
  • List of Countries
  • For 7 days
  • Water Temperature
  • Satellite Maps
  • Weather Map
  • News
  • Weather Widgets
  • user-avatar
    Login

    Hourly Weather El Guna

    Today, 17 January, Wednesday

    Time Temperature Precipitation Wind Pressure Humidity
    00:00 +13°C° 0 mm 3 mps 736 mmHg 52%
    01:00 +12°C° 0 mm 3 mps 736 mmHg 51%
    02:00 +12°C° 0 mm 3 mps 735 mmHg 51%
    03:00 +12°C° 0 mm 3 mps 735 mmHg 51%
    04:00 +12°C° 0 mm 4 mps 735 mmHg 52%
    05:00 +11°C° 0 mm 4 mps 735 mmHg 52%
    06:00 +12°C° 0 mm 4 mps 735 mmHg 50%
    07:00 +13°C° 0 mm 4 mps 735 mmHg 48%
    08:00 +14°C° 0 mm 4 mps 735 mmHg 46%
    09:00 +15°C° 0 mm 5 mps 735 mmHg 41%
    10:00 +17°C° 0 mm 5 mps 735 mmHg 37%
    11:00 +20°C° 0 mm 6 mps 735 mmHg 32%
    12:00 +20°C° 0 mm 6 mps 735 mmHg 31%
    13:00 +21°C° 0 mm 6 mps 734 mmHg 29%
    14:00 +21°C° 0 mm 7 mps 734 mmHg 27%
    15:00 +21°C° 0 mm 6 mps 734 mmHg 30%
    16:00 +20°C° 0 mm 6 mps 734 mmHg 33%
    17:00 +19°C° 0 mm 6 mps 734 mmHg 36%
    18:00 +16°C° 0 mm 5 mps 734 mmHg 41%
    19:00 +15°C° 0 mm 5 mps 734 mmHg 46%
    20:00 +14°C° 0 mm 4 mps 734 mmHg 50%
    21:00 +13°C° 0 mm 4 mps 734 mmHg 52%
    22:00 +13°C° 0 mm 4 mps 735 mmHg 53%
    23:00 +12°C° 0 mm 4 mps 735 mmHg 55%

    Tomorrow, 18 January, Thursday

    Time Temperature Precipitation Wind Pressure Humidity
    00:00 +12°C° 0 mm 3 mps 735 mmHg 56%
    01:00 +12°C° 0 mm 3 mps 734 mmHg 58%
    02:00 +11°C° 0 mm 3 mps 734 mmHg 60%
    03:00 +11°C° 0 mm 3 mps 734 mmHg 62%
    04:00 +11°C° 0 mm 3 mps 734 mmHg 64%
    05:00 +11°C° 0 mm 3 mps 734 mmHg 66%
    06:00 +12°C° 0 mm 3 mps 734 mmHg 62%
    07:00 +12°C° 0 mm 3 mps 735 mmHg 59%
    08:00 +13°C° 0 mm 3 mps 735 mmHg 55%
    09:00 +16°C° 0 mm 2 mps 735 mmHg 49%
    10:00 +18°C° 0 mm 2 mps 735 mmHg 42%
    11:00 +20°C° 0 mm 2 mps 735 mmHg 36%
    12:00 +21°C° 0 mm 3 mps 735 mmHg 32%
    13:00 +22°C° 0 mm 3 mps 734 mmHg 27%
    14:00 +23°C° 0 mm 4 mps 734 mmHg 23%
    15:00 +22°C° 0 mm 4 mps 734 mmHg 25%
    16:00 +21°C° 0 mm 4 mps 734 mmHg 27%
    17:00 +20°C° 0 mm 5 mps 734 mmHg 29%
    18:00 +17°C° 0 mm 5 mps 734 mmHg 31%
    19:00 +16°C° 0 mm 5 mps 734 mmHg 33%
    20:00 +15°C° 0 mm 5 mps 734 mmHg 35%
    21:00 +14°C° 0 mm 5 mps 734 mmHg 37%
    22:00 +14°C° 0 mm 5 mps 735 mmHg 39%
    23:00 +13°C° 0 mm 5 mps 735 mmHg 41%

    Day after tomorrow, 19 January, Friday

    Time Temperature Precipitation Wind Pressure Humidity
    00:00 +13°C° 0 mm 5 mps 735 mmHg 43%
    01:00 +13°C° 0 mm 5 mps 734 mmHg 44%
    02:00 +12°C° 0 mm 5 mps 734 mmHg 46%
    03:00 +12°C° 0 mm 5 mps 734 mmHg 50%
    04:00 +10°C° 0 mm 5 mps 734 mmHg 54%
    05:00 +10°C° 0 mm 5 mps 734 mmHg 58%
    06:00 +10°C° 0 mm 5 mps 735 mmHg 60%
    07:00 +10°C° 0 mm 5 mps 736 mmHg 62%
    08:00 +10°C° 0 mm 5 mps 736 mmHg 63%
    09:00 +13°C° 0 mm 5 mps 737 mmHg 58%
    10:00 +14°C° 0 mm 6 mps 737 mmHg 53%
    11:00 +15°C° 0 mm 6 mps 737 mmHg 48%
    12:00 +16°C° 0 mm 6 mps 737 mmHg 43%
    13:00 +16°C° 0 mm 6 mps 736 mmHg 38%
    14:00 +17°C° 0 mm 7 mps 736 mmHg 32%
    15:00 +17°C° 0 mm 6 mps 736 mmHg 33%
    16:00 +16°C° 0 mm 6 mps 736 mmHg 35%
    17:00 +15°C° 0 mm 6 mps 736 mmHg 36%
    18:00 +14°C° 0 mm 5 mps 737 mmHg 40%
    19:00 +13°C° 0 mm 5 mps 738 mmHg 44%
    20:00 +12°C° 0 mm 4 mps 738 mmHg 48%
    21:00 +11°C° 0 mm 4 mps 738 mmHg 49%
    22:00 +11°C° 0 mm 4 mps 738 mmHg 50%
    23:00 +11°C° 0 mm 4 mps 739 mmHg 50%

    20 January, Saturday

    Time Temperature Precipitation Wind Pressure Humidity
    00:00 +10°C° 0 mm 4 mps 738 mmHg 52%
    01:00 +10°C° 0 mm 3 mps 738 mmHg 54%
    02:00 +10°C° 0 mm 3 mps 738 mmHg 56%
    03:00 +9°C° 0 mm 3 mps 738 mmHg 58%
    04:00 +9°C° 0 mm 3 mps 738 mmHg 60%
    05:00 +8°C° 0 mm 3 mps 738 mmHg 62%
    06:00 +9°C° 0 mm 3 mps 739 mmHg 56%
    07:00 +10°C° 0 mm 3 mps 739 mmHg 50%
    08:00 +12°C° 0 mm 2 mps 740 mmHg 44%
    09:00 +13°C° 0 mm 3 mps 740 mmHg 38%
    10:00 +16°C° 0 mm 3 mps 739 mmHg 32%
    11:00 +18°C° 0 mm 3 mps 739 mmHg 25%
    12:00 +19°C° 0 mm 3 mps 739 mmHg 24%
    13:00 +20°C° 0 mm 2 mps 738 mmHg 22%
    14:00 +21°C° 0 mm 2 mps 738 mmHg 21%
    15:00 +20°C° 0 mm 2 mps 737 mmHg 24%
    16:00 +19°C° 0 mm 2 mps 737 mmHg 28%
    17:00 +18°C° 0 mm 2 mps 737 mmHg 31%
    18:00 +16°C° 0 mm 1 mps 738 mmHg 36%
    19:00 +15°C° 0 mm 1 mps 738 mmHg 41%
    20:00 +14°C° 0 mm 1 mps 738 mmHg 46%
    21:00 +13°C° 0 mm 1 mps 738 mmHg 45%
    22:00 +13°C° 0 mm 1 mps 738 mmHg 44%
    23:00 +12°C° 0 mm 1 mps 737 mmHg 44%

    21 January, Sunday

    Time Temperature Precipitation Wind Pressure Humidity
    00:00 +12°C° 0 mm 1 mps 737 mmHg 44%
    01:00 +11°C° 0 mm 1 mps 737 mmHg 44%
    02:00 +11°C° 0 mm 1 mps 737 mmHg 44%
    03:00 +11°C° 0 mm 1 mps 736 mmHg 46%
    04:00 +11°C° 0 mm 1 mps 736 mmHg 47%
    05:00 +10°C° 0 mm 1 mps 736 mmHg 49%
    06:00 +12°C° 0 mm 1 mps 736 mmHg 45%
    07:00 +14°C° 0 mm 1 mps 736 mmHg 41%
    08:00 +15°C° 0 mm 1 mps 736 mmHg 37%
    09:00 +17°C° 0 mm 2 mps 736 mmHg 33%
    10:00 +20°C° 0 mm 2 mps 736 mmHg 29%
    11:00 +22°C° 0 mm 3 mps 736 mmHg 25%
    12:00 +24°C° 0 mm 3 mps 735 mmHg 23%
    13:00 +25°C° 0 mm 3 mps 735 mmHg 22%
    14:00 +25°C° 0 mm 3 mps 734 mmHg 20%
    15:00 +24°C° 0 mm 3 mps 734 mmHg 24%
    16:00 +22°C° 0 mm 3 mps 734 mmHg 28%
    17:00 +21°C° 0 mm 3 mps 734 mmHg 32%
    18:00 +19°C° 0 mm 3 mps 734 mmHg 37%
    19:00 +18°C° 0 mm 2 mps 734 mmHg 42%
    20:00 +16°C° 0 mm 2 mps 734 mmHg 47%
    21:00 +16°C° 0 mm 2 mps 734 mmHg 47%
    22:00 +16°C° 0 mm 1 mps 734 mmHg 47%
    23:00 +15°C° 0 mm 1 mps 734 mmHg 46%

    22 January, Monday

    Time Temperature Precipitation Wind Pressure Humidity
    00:00 +15°C° 0 mm 1 mps 733 mmHg 45%
    01:00 +15°C° 0 mm 1 mps 733 mmHg 43%
    02:00 +14°C° 0 mm 1 mps 733 mmHg 41%
    03:00 +14°C° 0 mm 1 mps 732 mmHg 41%
    04:00 +14°C° 0 mm 1 mps 732 mmHg 41%
    05:00 +13°C° 0 mm 1 mps 732 mmHg 41%
    06:00 +15°C° 0 mm 1 mps 732 mmHg 36%
    07:00 +16°C° 0 mm 1 mps 733 mmHg 32%
    08:00 +18°C° 0 mm 1 mps 733 mmHg 28%
    09:00 +19°C° 0 mm 2 mps 733 mmHg 25%
    10:00 +21°C° 0 mm 2 mps 733 mmHg 21%
    11:00 +24°C° 0 mm 3 mps 733 mmHg 18%
    12:00 +24°C° 0 mm 3 mps 733 mmHg 17%
    13:00 +25°C° 0 mm 4 mps 732 mmHg 15%
    14:00 +25°C° 0 mm 4 mps 731 mmHg 14%
    15:00 +23°C° 0 mm 4 mps 731 mmHg 15%
    16:00 +22°C° 0 mm 4 mps 731 mmHg 17%
    17:00 +21°C° 0 mm 4 mps 731 mmHg 19%
    18:00 +20°C° 0 mm 4 mps 732 mmHg 23%
    19:00 +18°C° 0 mm 4 mps 732 mmHg 28%
    20:00 +17°C° 0 mm 4 mps 733 mmHg 32%
    21:00 +15°C° 0 mm 5 mps 733 mmHg 37%
    22:00 +14°C° 0 mm 5 mps 733 mmHg 41%
    23:00 +14°C° 0 mm 5 mps 733 mmHg 46%
    Show more